LUCAS (JDRS-1)

导读 | 豆包AI

LUCAS (JDRS-1)是日本于2020年11月29日在种子岛航天中心通过H-IIA火箭发射的激光通信中继卫星,正式名称为激光利用通信系统。它运行在地球静止轨道,核心任务是为近地轨道的民用、军用观测卫星提供高速数据中继服务,借助近红外激光技术,数据传输速率可达每秒1.8GB,是传统无线电传输的7倍,可快速获取地球观测、灾害监测等数据,设计任务时长10年,主要覆盖亚太区域。

Basic Information
目录编号:
47202
目录名称:
LUCAS (JDRS-1)
国际标识:
2020-089A
轨道中心:
EARTH
卫星名称:
LUCAS (JDRS-1)
卫星全名:
--
卫星状态:
在轨 (已飞行1921 天)
发射日期:
2020-11-29 UTC
国别 :
日本 (JP)
星等 :
--
Orbit Information
数据来源 国际轨道数据 AOE轨道数据
星历时间 2026-03-04T10:29:16+0800
7小时前
查看轨道信息
2026-03-04T07:00:00+0800
10小时前
查看轨道信息
半长轴 42164.308km 42164.28km
偏心率 0.0002806 0.000281
轨道倾角 0.062° 0.062°
近地点辐角 63.416° 67.476°
升交点赤经 275.630° 273.032°
平近点角 310.885° 256.960°
近地点 35774.339km 35774.294km
远地点 35798.003km 35797.992km
周期 1436.075分钟 1436.074分钟
每日圈数 1.002733 1.002734
Detailed Information
使用方式:
暂无
2D Orbit Map
3D Orbit Map
Orbit Altitude Analysis Chart
Orbit Inclination Analysis Chart
Orbit Comprehensive Analysis Chart
View Comprehensive Chart